Location: Austin
(30.3000°N, 97.7500°W)
Time: 03:38:09
(UTC-06:00)

Cosmos 923 Rocket - Visible Passes

Search period start: 04 March 2024 00:00
Search period end: 14 March 2024 01:00
Orbit: 757 x 782 km, 74.0° (Epoch: 03 March)

Date Brightness Start Highest point End Pass type
(mag) Time Alt. Az. Time Alt. Az. Time Alt. Az.
05 Mar 6.5 21:11:05 10° N 21:11:23 12° N 21:11:23 12° N visible
06 Mar 6.0 20:34:58 10° N 20:36:06 16° NNE 20:36:06 16° NNE visible
07 Mar 5.8 19:59:21 10° NNE 20:00:54 15° NE 20:00:54 15° NE visible
07 Mar 6.6 21:40:17 10° NNW 21:41:15 15° NW 21:41:15 15° NW visible
08 Mar 6.0 19:25:49 10° ENE 19:25:49 10° ENE 19:25:49 10° ENE visible
08 Mar 5.5 21:03:30 10° NNW 21:06:10 31° NNW 21:06:10 31° NNW visible
09 Mar 4.4 20:27:03 10° N 20:31:12 50° NNE 20:31:12 50° NNE visible
10 Mar 4.6 20:50:56 10° N 20:55:40 33° ENE 20:56:24 32° E visible
10 Mar 6.2 22:33:34 10° NW 22:36:46 21° W 22:36:46 21° W visible
11 Mar 5.4 20:15:17 10° NNE 20:18:58 19° ENE 20:21:46 13° ESE visible
11 Mar 5.2 21:56:17 10° NNW 22:01:08 39° W 22:02:10 35° SW visible
12 Mar 4.1 21:19:29 10° NNW 21:24:44 73° WSW 21:27:48 25° S visible
13 Mar 4.0 20:43:01 10° N 20:48:14 62° ENE 20:53:27 10° SSE visible
13 Mar 6.9 22:28:26 10° W 22:29:41 11° W 22:30:57 10° WSW visible
